Cloud_Cover
1 0 34 2 97 100 100 73 98 9 8 46 99 100 16 84 90 84 100 100 100 100 100 100 100 100 100 100 100 100 100 100 100 100 100 100 100 100 100 100 100 100 98 88 4 11 3 14 1
0 5 12 87 97 100 100 100 90 23 5 4 25 90 24 93 46 89 58 94 100 100 100 100 100 100 100 100 100 100 100 100 100 100 100 100 100 100 100 53 5 2 0 0 0 0 5 4 0
0 4 48 93 100 100 94 100 100 100 97 54 86 76 64 98 100 97 78 69 96 100 100 100 100 100 100 100 100 100 100 100 100 100 100 85 76 62 5 3 1 0 0 0 0 0 0 5 1
4 40 62 34 70 91 59 94 100 100 100 100 49 6 26 93 100 100 100 87 92 79 92 100 100 63 80 100 100 69 6 46 6 0 0 0 2 1 0 0 0 0 0 0 2 1 0 0 13
9 55 83 73 91 97 56 57 4 77 100 10 2 31 5 5 5 79 86 100 96 88 22 61 71 53 55 82 82 13 4 4 0 0 0 0 0 0 0 0 0 0 0 0 0 0 0 0 2
100 95 63 100 98 98 84 13 0 0 0 0 0 0 28 35 16 14 32 55 89 81 56 16 14 5 5 2 2 0 0 0 0 0 0 0 6 0 0 0 0 1 5 1 0 0 0 0 15
96 81 36 79 97 100 100 80 0 0 0 0 0 0 0 4 19 48 34 66 100 91 100 47 43 36 0 4 2 0 0 0 0 0 0 0 0 0 0 0 0 0 0 0 0 5 63 80 7
2 100 83 100 93 100 97 84 56 0 0 0 0 0 0 0 0 0 4 19 100 43 64 45 41 33 5 0 0 0 0 0 0 0 0 0 0 0 0 0 0 0 0 0 0 49 62 100 100
71 82 63 100 95 98 93 71 3 0 0 0 0 0 0 0 0 0 4 0 1 7 38 87 100 70 96 70 1 0 0 5 0 0 0 0 3 67 33 88 1 3 0 4 0 90 13 100 100
97 99 13 76 50 97 100 93 6 2 0 0 0 0 0 0 0 0 0 3 2 22 59 56 6 8 51 100 0 15 6 1 6 8 69 7 47 63 11 22 0 1 0 0 0 4 35 100 100
100 50 3 3 60 97 43 40 83 28 5 0 0 0 0 0 0 0 0 0 1 22 20 6 100 59 84 100 38 56 30 51 1 14 100 100 96 99 99 100 20 91 81 52 87 92 77 100 73
6 5 21 4 8 100 64 3 0 17 1 0 0 0 0 0 0 0 0 0 11 13 11 19 36 40 42 92 24 96 100 55 99 100 13 16 1 66 38 74 63 42 98 78 73 92 85 67 40
83 5 5 3 63 5 2 0 0 0 0 0 0 0 0 0 0 0 0 0 0 15 16 12 44 80 33 4 35 90 34 74 83 94 75 17 100 100 56 89 50 83 26 19 45 6 31 70 59
5 5 5 4 1 0 2 0 0 0 0 0 0 0 0 0 0 0 0 0 0 0 22 24 37 73 7 1 0 0 18 46 98 97 84 100 18 100 100 100 100 100 91 62 12 5 28 11 8
5 5 5 5 14 3 1 0 0 0 0 0 0 0 13 40 11 1 0 0 0 2 97 100 100 96 4 20 15 4 1 19 79 98 99 11 30 98 100 100 100 75 100 100 50 30 74 12 75
6 29 86 6 4 100 100 18 0 0 0 0 2 14 18 42 26 33 41 98 98 100 100 57 56 56 21 0 15 14 1 8 55 82 90 91 81 100 100 100 100 88 65 96 100 100 36 91 78
21 100 99 100 18 89 81 11 0 0 0 0 0 0 0 1 2 50 50 100 91 76 79 96 28 65 5 0 41 24 28 44 81 100 100 99 99 100 100 100 100 100 100 74 70 100 100 100 99
33 98 98 100 39 32 99 100 0 0 0 0 0 0 0 1 6 0 2 8 26 34 43 69 92 40 21 24 2 6 0 3 20 68 14 56 79 64 93 100 100 100 100 100 100 100 54 51 100
12 57 100 6 100 99 89 97 0 0 0 0 0 0 0 0 0 0 0 0 0 6 7 6 70 20 48 9 21 14 19 16 5 5 5 28 5 21 14 14 5 29 100 100 100 100 100 100 100
0 3 68 100 33 16 100 68 1 0 0 0 0 0 0 0 0 0 0 0 0 0 0 0 0 94 38 8 17 4 3 0 1 4 2 0 22 88 55 4 0 1 0 0 70 100 100 100 72
0 0 4 39 8 1 77 100 3 0 0 0 0 0 0 0 0 0 0 0 0 0 0 0 0 0 24 2 0 0 0 0 0 0 49 41 26 2 0 0 0 0 0 9 2 7 95 100 100
0 0 0 5 28 83 15 64 94 35 7 0 0 0 0 0 0 0 0 0 0 0 0 0 0 0 0 0 0 0 0 0 0 0 0 0 0 0 0 0 0 4 4 0 3 52 84 91 100
37 5 0 0 5 15 78 89 10 65 85 0 0 0 0 0 0 0 0 0 0 0 0 0 1 0 0 0 0 0 0 0 0 0 0 0 0 0 0 6 66 45 46 57 4 15 7 44 55
0 0 1 5 13 82 90 99 100 11 53 62 0 0 0 0 0 0 4 0 0 0 0 0 0 0 0 0 0 0 0 0 0 0 0 0 0 0 45 2 0 1 2 12 9 5 11 1 4
0 4 5 47 91 99 100 86 100 100 91 18 4 1 0 0 0 0 1 0 0 0 0 0 0 0 0 0 0 0 0 0 0 0 0 0 0 0 1 0 13 1 1 0 0 0 0 0 1
0 5 48 67 87 100 66 0 0 0 8 2 0 6 0 0 0 0 0 13 9 0 0 0 0 0 0 0 0 0 0 0 0 0 0 0 0 0 0 0 0 0 0 6 14 25 30 0 0
3 0 4 5 10 18 86 32 7 0 0 0 0 0 3 0 0 0 6 23 5 0 0 0 0 0 0 0 0 0 0 0 0 0 0 0 0 0 0 2 0 3 58 29 2 21 4 1 0
5 7 2 5 10 98 98 76 37 12 0 0 0 0 0 1 0 0 10 31 0 0 0 0 0 0 0 0 0 0 0 0 0 0 0 0 0 0 0 0 0 18 95 99 96 61 50 0 0
0 4 5 84 74 100 94 100 100 5 2 0 1 0 0 0 0 0 0 14 4 0 0 0 0 0 2 0 0 0 0 0 0 0 0 0 0 0 1 0 0 0 8 15 11 0 9 1 0
5 22 22 5 55 7 6 100 93 49 11 2 0 0 0 0 0 0 0 18 16 0 0 0 0 0 2 0 0 0 0 0 0 0 0 0 0 0 0 0 0 0 0 0 3 1 0 19 13